REU13I LFML-LFPG

Flight info

Callsign REU13I
Flight time N/A
Altitude 36000
Route ETREK DCT RUSIT DCT BULOL DCT LOGNI DCT MOKIP DCT ARFOZ DCT TINIL
Aircraft B77W/H-SDE1E2E3FGHIJ2J3J4J5M1RWXY/LB1D1

Departure

Time 2026-05-04 20:42
Airport Marseille Provence Airport (LFML)

Arrival

Time N/A
Airport Charles de Gaulle International Airport (LFPG)
Time Latitude Longitude Altitude Speed Heading
2026-05-04 19:58 43.44093 5.22015 42 ft 0 kts 44°
2026-05-04 20:30 43.44093 5.22016 42 ft 0 kts 44°
2026-05-04 20:31 43.44092 5.22014 42 ft 1 kts 44°
2026-05-04 20:31 43.44074 5.21990 42 ft 4 kts 43°
2026-05-04 20:31 43.44053 5.21964 42 ft 3 kts 41°
2026-05-04 20:32 43.44043 5.21951 42 ft 0 kts 33°
2026-05-04 20:32 43.44033 5.21945 42 ft 3 kts 17°
2026-05-04 20:32 43.44017 5.21941 43 ft 0 kts
2026-05-04 20:32 43.44031 5.21943 42 ft 4 kts
2026-05-04 20:33 43.44054 5.21942 42 ft 2 kts 339°
2026-05-04 20:33 43.44066 5.21925 41 ft 3 kts 310°
2026-05-04 20:33 43.44072 5.21917 41 ft 0 kts 314°
2026-05-04 20:37 43.44079 5.21906 41 ft 6 kts 314°
2026-05-04 20:37 43.44113 5.21843 39 ft 8 kts 280°
2026-05-04 20:38 43.44089 5.21776 39 ft 8 kts 224°
2026-05-04 20:38 43.44041 5.21714 39 ft 9 kts 222°
2026-05-04 20:38 43.43988 5.21645 39 ft 11 kts 224°
2026-05-04 20:38 43.43929 5.21551 39 ft 13 kts 252°
2026-05-04 20:39 43.43966 5.21418 36 ft 17 kts 307°
2026-05-04 20:39 43.44058 5.21290 33 ft 20 kts 316°
2026-05-04 20:39 43.44163 5.21143 30 ft 22 kts 314°
2026-05-04 20:39 43.44273 5.20971 27 ft 25 kts 302°
2026-05-04 20:40 43.44378 5.20763 24 ft 27 kts 312°
2026-05-04 20:40 43.44516 5.20570 23 ft 29 kts 314°
2026-05-04 20:40 43.44662 5.20366 22 ft 29 kts 314°
2026-05-04 20:40 43.44801 5.20163 21 ft 29 kts 317°
2026-05-04 20:41 43.44938 5.19974 21 ft 19 kts 312°
2026-05-04 20:41 43.44963 5.19821 21 ft 16 kts 238°
2026-05-04 20:41 43.44879 5.19805 21 ft 11 kts 158°
2026-05-04 20:41 43.44814 5.19873 21 ft 12 kts 134°
2026-05-04 20:42 43.44613 5.20163 22 ft 86 kts 132°
2026-05-04 20:42 43.43991 5.21036 55 ft 164 kts 133°
2026-05-04 20:42 43.43120 5.22219 772 ft 185 kts 131°
2026-05-04 20:42 43.42459 5.23561 2142 ft 167 kts 108°
2026-05-04 20:43 43.42295 5.25077 3081 ft 172 kts 98°
2026-05-04 20:43 43.42391 5.26816 3737 ft 198 kts 83°
2026-05-04 20:43 43.42939 5.28665 4402 ft 227 kts 63°
2026-05-04 20:43 43.44077 5.30349 5062 ft 258 kts 40°
2026-05-04 20:44 43.45806 5.31363 5685 ft 289 kts 11°
2026-05-04 20:44 43.47819 5.31092 6616 ft 299 kts 337°
2026-05-04 20:44 43.49516 5.29593 7758 ft 295 kts 311°
2026-05-04 20:44 43.50922 5.27535 8924 ft 297 kts 317°
2026-05-04 20:45 43.52666 5.26122 10092 ft 299 kts 333°
2026-05-04 20:45 43.54646 5.25079 10898 ft 315 kts 338°
2026-05-04 20:45 43.56771 5.24113 11593 ft 333 kts 339°
2026-05-04 20:45 43.59028 5.23110 12332 ft 351 kts 339°
2026-05-04 20:46 43.61404 5.22048 13086 ft 369 kts 339°
2026-05-04 20:46 43.63877 5.20939 13795 ft 388 kts 339°
2026-05-04 20:46 43.66494 5.19762 13963 ft 400 kts 339°
2026-05-04 20:46 43.69156 5.18566 13968 ft 401 kts 339°
2026-05-04 20:47 43.71795 5.17377 13950 ft 401 kts 339°
2026-05-04 20:47 43.74426 5.16140 13960 ft 401 kts 338°
2026-05-04 20:47 43.77068 5.14885 13952 ft 402 kts 338°
2026-05-04 20:47 43.79744 5.13614 13963 ft 402 kts 338°
2026-05-04 20:48 43.82352 5.12376 13965 ft 402 kts 338°
2026-05-04 20:48 43.85020 5.11109 13962 ft 401 kts 338°
2026-05-04 20:48 43.87656 5.09882 13956 ft 401 kts 341°
2026-05-04 20:48 43.90365 5.09064 13956 ft 402 kts 348°
2026-05-04 20:49 43.93135 5.08420 13960 ft 403 kts 348°
2026-05-04 20:49 43.95907 5.07784 13967 ft 404 kts 348°
2026-05-04 20:49 43.98678 5.07149 13947 ft 404 kts 348°
2026-05-04 20:49 44.01436 5.06517 13972 ft 405 kts 348°
2026-05-04 20:50 44.04220 5.05878 13964 ft 404 kts 348°
2026-05-04 20:50 44.06982 5.05244 13963 ft 404 kts 348°
2026-05-04 20:50 44.09773 5.04603 13963 ft 404 kts 348°
2026-05-04 20:50 44.12523 5.03970 13956 ft 405 kts 348°
2026-05-04 20:51 44.15305 5.03330 13968 ft 405 kts 348°
2026-05-04 20:51 44.18100 5.02688 13966 ft 405 kts 348°
2026-05-04 20:51 44.20846 5.02056 13963 ft 404 kts 348°
2026-05-04 20:51 44.23653 5.01409 13953 ft 404 kts 348°
2026-05-04 20:52 44.26460 5.00760 14145 ft 423 kts 349°
2026-05-04 20:52 44.29358 5.00089 15426 ft 426 kts 349°
2026-05-04 20:52 44.32223 4.99427 17037 ft 419 kts 349°
2026-05-04 20:52 44.35073 4.98767 18340 ft 420 kts 349°
2026-05-04 20:53 44.37956 4.98098 19304 ft 430 kts 349°
2026-05-04 20:53 44.40936 4.97405 20175 ft 442 kts 349°
2026-05-04 20:53 44.43998 4.96693 21127 ft 450 kts 349°
2026-05-04 20:53 44.47095 4.95972 22099 ft 457 kts 349°
2026-05-04 20:54 44.50242 4.95239 23089 ft 463 kts 349°
2026-05-04 20:54 44.53428 4.94496 24042 ft 470 kts 348°
2026-05-04 20:54 44.56653 4.93744 24998 ft 475 kts 349°
2026-05-04 20:54 44.59903 4.92984 25920 ft 481 kts 348°
2026-05-04 20:55 44.63210 4.92210 26783 ft 487 kts 348°
2026-05-04 20:55 44.66597 4.91416 27632 ft 494 kts 348°
2026-05-04 20:55 44.69987 4.90620 28518 ft 499 kts 348°
2026-05-04 20:55 44.73311 4.89475 29365 ft 502 kts 339°
2026-05-04 20:56 44.76580 4.87763 30230 ft 505 kts 336°
2026-05-04 20:56 44.79827 4.85943 31178 ft 506 kts 335°
2026-05-04 20:56 44.83093 4.84102 32350 ft 501 kts 335°
2026-05-04 20:56 44.86282 4.82304 33597 ft 492 kts 335°
2026-05-04 20:57 44.89380 4.80555 34787 ft 483 kts 335°
2026-05-04 20:57 44.92469 4.78810 35510 ft 478 kts 334°
2026-05-04 20:57 44.95558 4.77059 35879 ft 483 kts 334°
2026-05-04 20:57 44.98677 4.75290 35948 ft 485 kts 334°
2026-05-04 20:58 45.04919 4.71747 35953 ft 483 kts 334°
2026-05-04 20:58 45.11185 4.68191 35942 ft 485 kts 336°
2026-05-04 20:59 45.17822 4.66158 35935 ft 493 kts 354°
2026-05-04 20:59 45.24681 4.67012 35937 ft 498 kts 13°
2026-05-04 21:00 45.31191 4.70191 35947 ft 500 kts 20°
2026-05-04 21:00 45.37728 4.73669 35957 ft 499 kts 20°
2026-05-04 21:01 45.44185 4.77086 35955 ft 498 kts 20°
2026-05-04 21:01 45.50681 4.80516 35955 ft 497 kts 20°
2026-05-04 21:02 45.57126 4.83919 35963 ft 498 kts 20°
2026-05-04 21:02 45.63645 4.87365 35978 ft 500 kts 20°
2026-05-04 21:03 45.70127 4.90797 35986 ft 501 kts 19°
2026-05-04 21:03 45.76625 4.94247 35982 ft 499 kts 20°
2026-05-04 21:04 45.83114 4.97700 35987 ft 498 kts 19°
2026-05-04 21:04 45.89606 5.01162 35987 ft 500 kts 20°
2026-05-04 21:05 45.96108 5.04638 35981 ft 500 kts 20°
2026-05-04 21:05 46.02690 5.07988 35984 ft 500 kts 13°
2026-05-04 21:06 46.09520 5.09186 35988 ft 495 kts 358°
2026-05-04 21:06 46.16421 5.09237 35977 ft 498 kts 358°
2026-05-04 21:07 46.23311 5.09268 35978 ft 495 kts 358°
2026-05-04 21:07 46.30183 5.09297 35968 ft 495 kts 358°
2026-05-04 21:08 46.37060 5.09323 35953 ft 497 kts 357°
2026-05-04 21:08 46.43934 5.09348 35957 ft 496 kts 357°
2026-05-04 21:09 46.50845 5.09376 35958 ft 498 kts 357°
2026-05-04 21:09 46.57756 5.09405 35956 ft 498 kts 357°
2026-05-04 21:10 46.64633 5.09434 35961 ft 498 kts 357°
2026-05-04 21:10 46.71506 5.09463 35966 ft 495 kts 357°
2026-05-04 21:11 46.78432 5.09491 35965 ft 499 kts 357°
2026-05-04 21:11 46.85352 5.09522 35960 ft 496 kts 357°
2026-05-04 21:12 46.91133 5.09548 35966 ft 497 kts 357°
2026-05-04 21:12 46.98006 5.09578 35964 ft 497 kts 357°
2026-05-04 21:13 47.04900 5.09609 35968 ft 497 kts 356°
2026-05-04 21:13 47.11823 5.09639 35978 ft 499 kts 356°
2026-05-04 21:14 47.18704 5.09671 35964 ft 497 kts 356°
2026-05-04 21:14 47.25613 5.09702 35962 ft 496 kts 356°
2026-05-04 21:15 47.32540 5.09733 35970 ft 495 kts 356°
2026-05-04 21:15 47.35953 5.09749 35971 ft 495 kts 356°